Voltar ao catálogo

ATLAS 5 CENTAUR DEB

LostHEO
NORAD 46648·DEBRIS·🇺🇸 United States

Lançado Sep 17, 2014 de Cape Canaveral Space Force Station

Loading…

Próximas Passagens (próximas 24 horas)

TLE

ObsoletoSource: Space-Track

Época: Oct 29, 2023, 01:46 UTC

1 46648U 14055CY  23302.07366603 -.00000144  00000-0  00000+0 0  9993
2 46648  20.5520 257.4061 4674704 322.0410  12.6558  1.77027536 19671

Acompanhe ATLAS 5 CENTAUR DEB em tempo real com AllMySat

Download on the App Store